Weather History for ESSB - June, 2013

Change the Weather History Date:

Wednesday, June 12, 2013

  Actual Average Record
Temperature  
Mean Temperature 60 °F -  
Max Temperature 71 °F 67 °F 86 °F (2006)
Min Temperature 48 °F 53 °F 42 °F (2008)
Degree Days  
Heating Degree Days 6    
Growing Degree Days 10 (Base 50)    
Moisture  
Dew Point 50 °F    
Average Humidity 67    
Maximum Humidity 100    
Minimum Humidity 31    
Precipitation  
Precipitation 0.00 in - - ()
Sea Level Pressure  
Sea Level Pressure 29.97 in    
Wind  
Wind Speed 6 mph ()    
Max Wind Speed 12 mph    
Max Gust Speed -    
Visibility 10.4 miles    
Events      
Averages and records for this station are not official NWS values.
T = Trace of Precipitation, MM = Missing Value Source: Averaged Metar Reports

Daily Weather History Graph

Daily Weather History Graph

Search for Another Location

Airport or City:

Trip Planner

Search our weather history database for the weather conditions in past years. The results will help you decide how hot, cold, wet, or windy it might be!

Date:

Astronomy

Jun. 12, 2013 Rise Set
Actual Time 3:32 AM CEST 10:04 PM CEST
Civil Twilight 2:04 AM CEST 11:33 PM CEST
Nautical Twilight Sun does not rise Sun does not rise
Astronomical Twilight Sun does not rise Sun does not rise
Moon 7:43 AM CEST (6/12) 11:32 PM CEST (6/12)
Length of Visible Light 21h 28m
Length of Day
18h 31m
Waxing Crescent, 12% of the Moon is Illuminated
Jun 12
Waxing Crescent
Jun 16
First Quarter
Jun 23
Full
Jun 30
Last Quarter
Jul 8
New

Hourly Weather History & Observations

Time (CEST) Temp. Dew Point Humidity Pressure Visibility Wind Dir Wind Speed Gust Speed Precip Events Conditions
12:00 AM 55 °F 48 °F 71% 29.94 in 31 mi SSW 4.5 mph - -  
12:20 AM 55.4 °F 48.2 °F 77% 29.92 in 6.2 mi SSW 4.6 mph - N/A   Unknown
12:50 AM 53.6 °F 48.2 °F 82% 29.92 in 6.2 mi SSW 5.8 mph - N/A   Unknown
1:00 AM 52 °F 49 °F 86% 29.94 in 31 mi South 2.2 mph - -  
1:20 AM 51.8 °F 50.0 °F 94% 29.92 in 6.2 mi South 4.6 mph - N/A   Unknown
1:50 AM 50.0 °F 50.0 °F 100% 29.92 in 6.2 mi South 2.3 mph - N/A   Unknown
2:00 AM 50 °F 49 °F 93% 29.94 in 31 mi South 2.2 mph - -  
2:20 AM 50.0 °F 48.2 °F 94% 29.92 in 6.2 mi South 2.3 mph - N/A   Unknown
2:50 AM 50.0 °F 48.2 °F 94% 29.92 in 6.2 mi Variable 2.3 mph - N/A   Unknown
3:00 AM 49 °F 49 °F 99% 29.95 in 31 mi Calm Calm - -  
3:20 AM 50.0 °F 50.0 °F 100% 29.95 in 6.2 mi Variable 2.3 mph - N/A   Unknown
3:50 AM 50.0 °F 48.2 °F 94% 29.92 in 6.2 mi SW 2.3 mph - N/A   Unknown
4:00 AM 49 °F 48 °F 96% 29.95 in 31 mi SW 2.2 mph - -  
4:20 AM 50.0 °F 48.2 °F 94% 29.95 in 6.2 mi WSW 3.5 mph - N/A   Unknown
4:50 AM 50.0 °F 50.0 °F 100% 29.95 in 6.2 mi WSW 3.5 mph - N/A   Unknown
5:00 AM 52 °F 50 °F 92% 29.95 in 25 mi SW 4.5 mph - -  
5:20 AM 55.4 °F 50.0 °F 82% 29.95 in 6.2 mi WSW 5.8 mph - N/A   Unknown
5:50 AM 57.2 °F 51.8 °F 82% 29.95 in - WSW 8.1 mph - N/A   Clear
6:00 AM 57 °F 51 °F 75% 29.96 in 19 mi WSW 6.7 mph - -  
6:20 AM 57.2 °F 51.8 °F 82% 29.95 in - WSW 6.9 mph - N/A   Clear
6:50 AM 59.0 °F 51.8 °F 77% 29.95 in - WSW 10.4 mph - N/A   Clear
7:00 AM 58 °F 51 °F 70% 29.97 in 16 mi WSW 8.9 mph - -  
7:20 AM 59.0 °F 51.8 °F 77% 29.95 in - WSW 9.2 mph - N/A   Clear
7:50 AM 59.0 °F 51.8 °F 77% 29.95 in - WSW 9.2 mph - N/A   Clear
8:00 AM 59 °F 51 °F 68% 29.98 in 19 mi SW 8.9 mph - -  
8:20 AM 59.0 °F 51.8 °F 77% 29.98 in - WSW 10.4 mph - N/A   Clear
8:50 AM 60.8 °F 51.8 °F 72% 29.98 in - WSW 10.4 mph - N/A   Clear
9:00 AM 61 °F 51 °F 61% 29.98 in 17 mi WSW 11.2 mph - -  
9:20 AM 60.8 °F 50.0 °F 68% 29.98 in - West 9.2 mph - N/A   Clear
9:50 AM 62.6 °F 50.0 °F 63% 29.98 in - WSW 10.4 mph - N/A   Clear
10:00 AM 64 °F 51 °F 53% 29.98 in 22 mi WSW 8.9 mph - -  
10:20 AM 64.4 °F 51.8 °F 64% 29.98 in - West 11.5 mph - N/A   Clear
10:50 AM 64.4 °F 50.0 °F 59% 29.98 in - WSW 11.5 mph - N/A   Clear
11:00 AM 65 °F 51 °F 49% 29.99 in 19 mi SW 11.2 mph - -  
11:20 AM 66.2 °F 51.8 °F 60% 29.98 in - WSW 11.5 mph - N/A   Clear
11:50 AM 66.2 °F 50.0 °F 56% 29.98 in - West 11.5 mph - N/A   Clear
12:00 PM 67 °F 50 °F 43% 29.99 in 19 mi WSW 8.9 mph - -  
12:20 PM 68.0 °F 50.0 °F 52% 29.98 in - West 9.2 mph - N/A   Clear
12:50 PM 68.0 °F 51.8 °F 56% 29.98 in - WSW 9.2 mph - N/A   Clear
1:00 PM 69 °F 51 °F 43% 29.99 in 19 mi West 8.9 mph - -  
1:20 PM 68.0 °F 51.8 °F 56% 29.98 in - West 9.2 mph - N/A   Clear
1:50 PM 68.0 °F 51.8 °F 56% 29.98 in - WSW 11.5 mph - N/A   Clear
2:00 PM 68 °F 50 °F 42% 30.00 in 19 mi West 8.9 mph - -   Scattered Clouds
2:20 PM 68.0 °F 50.0 °F 52% 29.98 in 6.2 mi West 10.4 mph - N/A   Scattered Clouds
2:50 PM 69.8 °F 50.0 °F 49% 29.98 in 6.2 mi West 10.4 mph - N/A   Partly Cloudy
3:00 PM 70 °F 49 °F 36% 29.99 in 16 mi West 8.9 mph - -   Scattered Clouds
3:20 PM 69.8 °F 46.4 °F 43% 29.98 in - West 9.2 mph - N/A   Clear
3:50 PM 69.8 °F 48.2 °F 46% 29.98 in - WNW 8.1 mph - N/A   Clear
4:00 PM 69 °F 48 °F 35% 29.98 in 17 mi West 6.7 mph - -  
4:20 PM 69.8 °F 48.2 °F 46% 29.98 in - Variable 5.8 mph - N/A   Clear
4:50 PM 69.8 °F 48.2 °F 46% 29.98 in 6.2 mi WSW 5.8 mph - N/A   Partly Cloudy
5:00 PM 71 °F 49 °F 34% 29.98 in 22 mi West 4.5 mph - -   Partly Cloudy
5:20 PM 71.6 °F 46.4 °F 41% 29.98 in - WSW 8.1 mph - N/A   Clear
5:50 PM 71.6 °F 44.6 °F 38% 29.98 in - WSW 8.1 mph - N/A   Clear
6:00 PM 70 °F 46 °F 31% 29.98 in 25 mi SW 6.7 mph - -  
6:20 PM 68.0 °F 51.8 °F 56% 29.98 in - SSW 8.1 mph - N/A   Clear
6:50 PM 68.0 °F 53.6 °F 60% 29.98 in - South 9.2 mph - N/A   Clear
7:00 PM 67 °F 53 °F 51% 29.98 in 22 mi SSW 8.9 mph - -   Scattered Clouds
7:20 PM 66.2 °F 51.8 °F 60% 29.98 in - South 9.2 mph - N/A   Clear
7:50 PM 66.2 °F 51.8 °F 60% 29.98 in - SSW 9.2 mph - N/A   Clear
8:00 PM 67 °F 52 °F 47% 29.99 in 22 mi South 6.7 mph - -   Partly Cloudy
8:20 PM 66.2 °F 51.8 °F 60% 29.98 in - South 8.1 mph - N/A   Clear
8:50 PM 64.4 °F 51.8 °F 64% 29.98 in - South 5.8 mph - N/A   Clear
9:00 PM 63 °F 52 °F 58% 29.99 in 25 mi South 2.2 mph - -  
9:20 PM 62.6 °F 51.8 °F 68% 29.98 in - SSW 4.6 mph - N/A   Clear
9:50 PM 60.8 °F 51.8 °F 72% 29.98 in - SSE 4.6 mph - N/A   Clear
10:00 PM 61 °F 51 °F 62% 29.99 in 31 mi SSE 4.5 mph - -  
10:20 PM 57.2 °F 51.8 °F 82% 29.98 in 6.2 mi South 3.5 mph - N/A   Unknown
10:50 PM 57.2 °F 51.8 °F 82% 29.98 in 6.2 mi SSE 2.3 mph - N/A   Unknown
11:00 PM 56 °F 51 °F 79% 29.99 in 28 mi Calm Calm - -  
11:20 PM 55.4 °F 51.8 °F 88% 29.98 in 6.2 mi SE 1.2 mph - N/A   Unknown
11:50 PM 55.4 °F 51.8 °F 88% 29.98 in 6.2 mi SE 2.3 mph - N/A   Unknown